Overview Statistics Trail Chart Weather Telemetry Raw packets
 

This is the latest recevied weather packets stored in our database for station/object K5SVV. If no packets are shown the sender has not sent any weather packets the latest 10 day(s).

<< 78 79 80 81 82 83 84 >>
Time Temp. Humidity Pressure Rain* Wind** Luminosity Snow
1788126193 36.11° C 38% 1012.7 hPa 0 mm - 119 W/m² -
1788125892 36.67° C 36% 1012.7 hPa 0 mm - 125 W/m² -
1788125587 35.56° C 38% 1012.6 hPa 0 mm - 547 W/m² -
1788125283 35.56° C 37% 1012.7 hPa 0 mm - 124 W/m² -
1788124979 36.11° C 38% 1012.9 hPa 0 mm - 137 W/m² -
1788124678 36.67° C 38% 1012.8 hPa 0 mm - 147 W/m² -
1788124377 37.22° C 34% 1012.9 hPa 0 mm - 156 W/m² -
1788124073 37.22° C 34% 1013.1 hPa 0 mm - 569 W/m² -
1788123772 37.22° C 35% 1013.2 hPa 0 mm - 691 W/m² -
1788123470 37.78° C 34% 1013.3 hPa 0 mm - 690 W/m² -
1788123164 37.78° C 33% 1013.4 hPa 0 mm - 669 W/m² -
1788122860 37.22° C 33% 1013.5 hPa 0 mm - 664 W/m² -
1788122558 37.22° C 34% 1013.5 hPa 0 mm - 676 W/m² -
1788122255 37.22° C 34% 1013.3 hPa 0 mm - 682 W/m² -
1788121950 37.78° C 35% 1013.5 hPa 0 mm - 674 W/m² -
1788121650 37.22° C 35% 1013.6 hPa 0 mm - 691 W/m² -
1788121346 37.78° C 34% 1013.6 hPa 0 mm - 692 W/m² -
1788121045 37.78° C 34% 1013.6 hPa 0 mm - 696 W/m² -
1788120740 37.22° C 34% 1013.6 hPa 0 mm - 691 W/m² -
1788120435 37.22° C 34% 1013.7 hPa 0 mm - 690 W/m² -
1788120135 37.22° C 34% 1014 hPa 0 mm - 696 W/m² -
1788119830 37.22° C 36% 1013.8 hPa 0 mm - 698 W/m² -
1788119528 37.78° C 35% 1013.8 hPa 0 mm - 702 W/m² -
1788119222 36.67° C 36% 1014 hPa 0 mm - 684 W/m² -
1788118921 36.67° C 35% 1014.5 hPa 0 mm - 674 W/m² -

* Rain latest hour (hover to see other rain measurements)
** Current wind speed in m/s (hover to see current wind gust speed)